QPF
0.01 0.01 0.02 0.04 0.05 0.05 0.06 0.07 0.08 0.08 0.09 0.09 0.09 0.08 0.07 0.07 0.06 0.04 0.03 0.03 0.02 0.02 0.01 0.01 0.01 0.01 0.01 0.01 0.01 0.02 0.02 0.02 0.03 0.02 0.02 0.02 0.02 0.03 0.03 0.03 0.02 0.02 0.02
0.01 0.01 0.02 0.03 0.04 0.05 0.06 0.06 0.06 0.07 0.07 0.07 0.08 0.07 0.06 0.05 0.03 0.03 0.03 0.03 0.03 0.02 0.02 0.02 0.02 0.02 0.02 0.02 0.02 0.02 0.02 0.02 0.02 0.03 0.02 0.02 0.02 0.02 0.02 0.01 0.01 0.01 0.01
0.01 0.01 0.02 0.02 0.03 0.03 0.03 0.04 0.04 0.04 0.04 0.04 0.04 0.04 0.04 0.03 0.02 0.02 0.02 0.02 0.03 0.03 0.03 0.03 0.03 0.03 0.03 0.03 0.02 0.02 0.02 0.01 0.01 0.01 0.01 0.01 0.01 0.01 0.01 0.01 0.01 0.01 0.01
0.01 0.01 0.01 0.02 0.02 0.03 0.03 0.03 0.03 0.03 0.02 0.02 0.02 0.02 0.02 0.02 0.02 0.02 0.02 0.02 0.02 0.02 0.02 0.02 0.02 0.02 0.02 0.02 0.02 0.02 0.01 0.01 0.01 0.01 0.01 0.01 0.01 0.01 0.01 0.01 0.01 0.01 0.01
0.01 0.01 0.02 0.02 0.02 0.03 0.03 0.02 0.02 0.02 0.01 0.01 0.01 0.01 0.01 0.01 0.01 0.01 0.01 0.01 0.01 0.01 0.02 0.02 0.01 0.01 0.01 0.01 0.01 0.01 0.01 0.01 0.01 0.01 0.01 0.01 0.01 0.01 0.01 0.01 0.01 0.01 0.01
0.01 0.01 0.02 0.01 0.01 0.02 0.02 0.01 0.01 0.01 0.01 0.01 0.01 0.01 0.01 0.01 0.01 0.01 0.01 0.01 0.01 0.01 0.01 0.01 0.01 0.01 0.01 0.01 0.01 0.01 0.01 0.01 0.01 0.01 0.01 0.01 0.01 0.01 0.01 0.01 0.02 0.02 0.02
0.01 0.01 0.01 0.01 0.01 0.01 0.01 0.01 0.01 0.01 0.01 0.01 0.01 0.01 0.01 0.01 0.01 0.01 0.01 0.01 0.01 0.01 0.01 0.01 0.01 0.01 0.01 0.01 0.01 0.00 0.00 0.00 0.01 0.01 0.02 0.01 0.01 0.01 0.01 0.02 0.02 0.03 0.03
0.01 0.02 0.02 0.02 0.02 0.02 0.01 0.01 0.01 0.01 0.01 0.01 0.01 0.01 0.00 0.00 0.01 0.01 0.01 0.01 0.01 0.01 0.01 0.01 0.01 0.01 0.01 0.01 0.01 0.01 0.00 0.00 0.00 0.01 0.01 0.01 0.01 0.01 0.02 0.03 0.03 0.03 0.02
0.01 0.01 0.01 0.01 0.01 0.02 0.03 0.03 0.02 0.01 0.01 0.00 0.01 0.01 0.01 0.01 0.01 0.01 0.01 0.01 0.00 0.01 0.01 0.01 0.01 0.01 0.01 0.01 0.01 0.01 0.01 0.00 0.00 0.00 0.01 0.01 0.01 0.01 0.02 0.02 0.03 0.03 0.03
0.01 0.01 0.01 0.01 0.01 0.01 0.01 0.02 0.03 0.02 0.01 0.01 0.00 0.00 0.01 0.01 0.01 0.01 0.01 0.01 0.01 0.01 0.01 0.01 0.01 0.01 0.01 0.01 0.01 0.02 0.01 0.01 0.01 0.00 0.00 0.00 0.00 0.01 0.01 0.02 0.02 0.03 0.03
0.00 0.00 0.00 0.00 0.00 0.00 0.00 0.00 0.01 0.01 0.02 0.02 0.01 0.01 0.01 0.01 0.01 0.01 0.01 0.01 0.01 0.01 0.01 0.01 0.01 0.01 0.01 0.01 0.02 0.02 0.01 0.01 0.01 0.01 0.01 0.00 0.00 0.00 0.01 0.01 0.02 0.03 0.05
0.00 0.00 0.00 0.00 0.00 0.00 0.00 0.00 0.00 0.00 0.00 0.01 0.01 0.01 0.01 0.01 0.01 0.01 0.01 0.01 0.01 0.02 0.02 0.01 0.01 0.01 0.01 0.01 0.01 0.01 0.01 0.01 0.01 0.01 0.01 0.01 0.01 0.01 0.01 0.01 0.01 0.02 0.04
0.00 0.00 0.00 0.00 0.00 0.00 0.00 0.00 0.00 0.00 0.00 0.00 0.00 0.00 0.00 0.00 0.00 0.01 0.01 0.01 0.02 0.02 0.02 0.02 0.02 0.01 0.01 0.01 0.01 0.01 0.01 0.01 0.01 0.01 0.01 0.01 0.01 0.01 0.01 0.01 0.01 0.01 0.02
0.00 0.00 0.00 0.00 0.00 0.00 0.00 0.00 0.00 0.00 0.00 0.00 0.00 0.00 0.00 0.00 0.00 0.01 0.01 0.01 0.02 0.02 0.02 0.02 0.02 0.01 0.01 0.01 0.01 0.01 0.01 0.01 0.01 0.01 0.01 0.01 0.01 0.01 0.01 0.01 0.01 0.01 0.01
0.00 0.00 0.00 0.00 0.00 0.00 0.00 0.00 0.00 0.00 0.00 0.01 0.01 0.01 0.01 0.01 0.01 0.01 0.02 0.02 0.02 0.02 0.03 0.02 0.02 0.01 0.01 0.01 0.01 0.01 0.01 0.01 0.01 0.01 0.01 0.01 0.01 0.01 0.01 0.01 0.01 0.01 0.01
0.00 0.00 0.00 0.00 0.00 0.00 0.00 0.00 0.00 0.00 0.00 0.01 0.01 0.01 0.01 0.01 0.01 0.01 0.02 0.02 0.02 0.03 0.03 0.02 0.01 0.01 0.01 0.01 0.01 0.01 0.01 0.01 0.01 0.01 0.01 0.01 0.01 0.01 0.01 0.01 0.01 0.01 0.01
0.01 0.00 0.00 0.00 0.00 0.00 0.00 0.00 0.00 0.00 0.00 0.00 0.00 0.00 0.01 0.01 0.01 0.01 0.02 0.02 0.02 0.02 0.02 0.01 0.01 0.01 0.01 0.01 0.01 0.01 0.01 0.01 0.01 0.01 0.01 0.01 0.01 0.01 0.01 0.01 0.01 0.01 0.01
0.00 0.00 0.00 0.00 0.00 0.00 0.00 0.00 0.00 0.00 0.00 0.00 0.00 0.00 0.00 0.01 0.01 0.01 0.01 0.02 0.02 0.01 0.01 0.01 0.01 0.01 0.01 0.01 0.01 0.01 0.01 0.01 0.01 0.01 0.01 0.01 0.01 0.01 0.01 0.01 0.01 0.01 0.01
0.00 0.00 0.00 0.00 0.00 0.00 0.00 0.00 0.00 0.00 0.00 0.00 0.00 0.00 0.00 0.00 0.01 0.01 0.01 0.01 0.01 0.01 0.01 0.01 0.01 0.01 0.01 0.01 0.01 0.01 0.01 0.01 0.01 0.01 0.01 0.01 0.01 0.01 0.01 0.01 0.01 0.01 0.01
0.00 0.00 0.00 0.00 0.00 0.00 0.00 0.00 0.00 0.00 0.00 0.00 0.00 0.00 0.00 0.00 0.00 0.00 0.01 0.01 0.01 0.01 0.01 0.01 0.01 0.01 0.02 0.01 0.01 0.01 0.01 0.01 0.01 0.01 0.01 0.01 0.01 0.02 0.02 0.02 0.01 0.02 0.02
0.00 0.00 0.00 0.00 0.00 0.00 0.00 0.00 0.00 0.00 0.00 0.00 0.00 0.00 0.01 0.01 0.01 0.00 0.01 0.01 0.01 0.01 0.01 0.01 0.02 0.02 0.02 0.02 0.02 0.01 0.01 0.01 0.01 0.01 0.01 0.01 0.01 0.02 0.02 0.02 0.02 0.02 0.02
0.00 0.00 0.00 0.00 0.00 0.00 0.00 0.00 0.00 0.00 0.00 0.00 0.00 0.00 0.00 0.01 0.01 0.00 0.01 0.01 0.01 0.01 0.01 0.01 0.02 0.02 0.02 0.02 0.02 0.02 0.01 0.01 0.01 0.01 0.02 0.01 0.02 0.02 0.02 0.02 0.02 0.02 0.02
0.00 0.00 0.00 0.00 0.00 0.00 0.00 0.00 0.00 0.00 0.00 0.00 0.00 0.00 0.00 0.00 0.01 0.01 0.01 0.01 0.01 0.01 0.01 0.02 0.02 0.02 0.02 0.02 0.02 0.02 0.02 0.02 0.02 0.02 0.02 0.02 0.02 0.02 0.02 0.02 0.02 0.02 0.02
0.00 0.00 0.00 0.00 0.00 0.00 0.00 0.00 0.00 0.00 0.00 0.00 0.00 0.00 0.00 0.01 0.01 0.01 0.01 0.01 0.01 0.01 0.01 0.02 0.02 0.01 0.02 0.02 0.02 0.02 0.02 0.02 0.02 0.02 0.02 0.02 0.02 0.02 0.02 0.02 0.02 0.02 0.02
0.00 0.00 0.00 0.00 0.00 0.00 0.00 0.00 0.00 0.00 0.00 0.00 0.00 0.00 0.00 0.01 0.01 0.01 0.01 0.01 0.01 0.01 0.01 0.01 0.01 0.02 0.02 0.02 0.02 0.02 0.02 0.02 0.02 0.02 0.02 0.02 0.02 0.02 0.02 0.02 0.02 0.02 0.02
0.00 0.00 0.00 0.00 0.00 0.00 0.00 0.00 0.00 0.00 0.00 0.01 0.00 0.01 0.01 0.01 0.01 0.01 0.01 0.01 0.01 0.01 0.01 0.01 0.01 0.01 0.02 0.02 0.01 0.01 0.01 0.02 0.02 0.02 0.02 0.02 0.02 0.01 0.02 0.02 0.02 0.02 0.03
MSLP
1030.88 1031.13 1031.35 1031.52 1031.60 1031.57 1031.44 1031.22 1030.92 1030.57 1030.18 1029.76 1029.29 1028.78 1028.22 1027.60 1026.94 1026.25 1025.56 1024.88 1024.24 1023.66 1023.11 1022.60 1022.09 1021.53 1020.92 1020.20 1019.39 1018.50 1017.54 1016.56 1015.60 1014.70 1013.88 1013.16 1012.54 1011.98 1011.47 1010.96 1010.43 1009.86 1009.23
1030.79 1031.11 1031.39 1031.61 1031.72 1031.71 1031.59 1031.36 1031.06 1030.69 1030.26 1029.80 1029.29 1028.73 1028.11 1027.45 1026.74 1026.01 1025.27 1024.56 1023.89 1023.28 1022.71 1022.16 1021.62 1021.04 1020.40 1019.66 1018.84 1017.93 1016.97 1016.00 1015.05 1014.17 1013.36 1012.66 1012.04 1011.48 1010.95 1010.41 1009.83 1009.19 1008.48
1030.83 1031.20 1031.52 1031.75 1031.86 1031.85 1031.71 1031.47 1031.14 1030.74 1030.29 1029.79 1029.25 1028.66 1028.01 1027.33 1026.60 1025.85 1025.10 1024.37 1023.69 1023.05 1022.44 1021.86 1021.27 1020.64 1019.94 1019.16 1018.29 1017.36 1016.38 1015.40 1014.46 1013.58 1012.80 1012.11 1011.49 1010.92 1010.37 1009.80 1009.17 1008.47 1007.70
1030.94 1031.34 1031.67 1031.89 1031.99 1031.95 1031.79 1031.52 1031.16 1030.74 1030.27 1029.75 1029.19 1028.59 1027.94 1027.25 1026.52 1025.77 1025.03 1024.30 1023.60 1022.93 1022.29 1021.65 1021.00 1020.30 1019.53 1018.68 1017.76 1016.78 1015.77 1014.77 1013.83 1012.95 1012.17 1011.49 1010.88 1010.30 1009.74 1009.14 1008.48 1007.75 1006.93
1031.11 1031.51 1031.82 1032.02 1032.08 1032.01 1031.81 1031.52 1031.14 1030.71 1030.23 1029.71 1029.14 1028.54 1027.90 1027.21 1026.49 1025.76 1025.01 1024.28 1023.56 1022.86 1022.17 1021.48 1020.75 1019.96 1019.11 1018.18 1017.19 1016.15 1015.11 1014.09 1013.13 1012.25 1011.48 1010.79 1010.18 1009.61 1009.03 1008.42 1007.75 1007.00 1006.18
1031.30 1031.69 1031.97 1032.12 1032.14 1032.03 1031.80 1031.49 1031.11 1030.67 1030.20 1029.68 1029.13 1028.53 1027.89 1027.21 1026.49 1025.74 1024.99 1024.24 1023.49 1022.75 1022.00 1021.23 1020.41 1019.54 1018.61 1017.60 1016.54 1015.45 1014.36 1013.31 1012.34 1011.46 1010.68 1010.00 1009.38 1008.81 1008.24 1007.63 1006.97 1006.23 1005.42
1031.55 1031.90 1032.13 1032.23 1032.19 1032.04 1031.79 1031.47 1031.09 1030.66 1030.20 1029.69 1029.14 1028.54 1027.89 1027.20 1026.46 1025.69 1024.90 1024.10 1023.30 1022.49 1021.67 1020.82 1019.93 1018.97 1017.95 1016.87 1015.75 1014.61 1013.49 1012.42 1011.43 1010.54 1009.76 1009.08 1008.47 1007.89 1007.33 1006.73 1006.09 1005.39 1004.62
1031.85 1032.16 1032.33 1032.37 1032.28 1032.09 1031.82 1031.49 1031.12 1030.70 1030.24 1029.74 1029.18 1028.57 1027.89 1027.15 1026.36 1025.53 1024.68 1023.82 1022.95 1022.06 1021.16 1020.22 1019.25 1018.21 1017.12 1015.97 1014.80 1013.63 1012.48 1011.39 1010.40 1009.50 1008.72 1008.02 1007.41 1006.83 1006.27 1005.69 1005.09 1004.43 1003.72
1032.25 1032.50 1032.60 1032.58 1032.44 1032.21 1031.91 1031.57 1031.19 1030.77 1030.31 1029.80 1029.22 1028.56 1027.83 1027.03 1026.17 1025.27 1024.34 1023.39 1022.43 1021.46 1020.48 1019.46 1018.40 1017.30 1016.14 1014.95 1013.74 1012.54 1011.37 1010.27 1009.26 1008.36 1007.56 1006.85 1006.21 1005.63 1005.07 1004.51 1003.93 1003.32 1002.68
1032.74 1032.92 1032.96 1032.87 1032.66 1032.39 1032.06 1031.69 1031.29 1030.86 1030.38 1029.83 1029.21 1028.50 1027.71 1026.83 1025.90 1024.91 1023.89 1022.86 1021.82 1020.77 1019.71 1018.62 1017.49 1016.33 1015.13 1013.89 1012.65 1011.42 1010.24 1009.12 1008.09 1007.16 1006.33 1005.60 1004.93 1004.33 1003.75 1003.18 1002.62 1002.06 1001.49
1033.30 1033.43 1033.39 1033.22 1032.96 1032.62 1032.25 1031.84 1031.41 1030.94 1030.42 1029.83 1029.15 1028.38 1027.52 1026.57 1025.56 1024.50 1023.41 1022.31 1021.21 1020.09 1018.97 1017.82 1016.64 1015.43 1014.18 1012.92 1011.64 1010.38 1009.17 1008.03 1006.97 1006.00 1005.13 1004.34 1003.63 1002.98 1002.37 1001.78 1001.23 1000.69 1000.17
1033.91 1033.97 1033.86 1033.61 1033.28 1032.88 1032.45 1031.99 1031.51 1030.99 1030.42 1029.77 1029.03 1028.20 1027.28 1026.27 1025.21 1024.10 1022.97 1021.83 1020.69 1019.54 1018.38 1017.20 1015.98 1014.73 1013.45 1012.15 1010.84 1009.55 1008.30 1007.11 1006.00 1004.97 1004.04 1003.19 1002.41 1001.69 1001.02 1000.40 999.83 999.30 998.82
1034.49 1034.49 1034.31 1034.00 1033.60 1033.14 1032.65 1032.13 1031.59 1031.01 1030.38 1029.67 1028.88 1028.00 1027.03 1026.00 1024.91 1023.79 1022.65 1021.51 1020.37 1019.21 1018.05 1016.85 1015.62 1014.34 1013.03 1011.69 1010.34 1009.00 1007.70 1006.46 1005.28 1004.19 1003.17 1002.24 1001.37 1000.57 999.83 999.15 998.54 998.00 997.54
1035.00 1034.93 1034.69 1034.33 1033.87 1033.36 1032.82 1032.25 1031.65 1031.02 1030.33 1029.57 1028.74 1027.82 1026.83 1025.79 1024.71 1023.61 1022.50 1021.40 1020.28 1019.16 1018.01 1016.82 1015.59 1014.30 1012.97 1011.59 1010.20 1008.81 1007.46 1006.15 1004.90 1003.73 1002.63 1001.60 1000.64 999.75 998.93 998.17 997.51 996.93 996.46
1035.37 1035.25 1034.97 1034.57 1034.08 1033.54 1032.97 1032.36 1031.73 1031.05 1030.32 1029.52 1028.65 1027.72 1026.73 1025.71 1024.66 1023.61 1022.55 1021.50 1020.45 1019.37 1018.27 1017.11 1015.89 1014.60 1013.25 1011.85 1010.42 1008.99 1007.57 1006.21 1004.89 1003.64 1002.46 1001.34 1000.29 999.31 998.41 997.58 996.85 996.23 995.73
1035.57 1035.41 1035.11 1034.70 1034.21 1033.68 1033.10 1032.49 1031.84 1031.14 1030.39 1029.57 1028.68 1027.74 1026.77 1025.77 1024.77 1023.77 1022.79 1021.81 1020.82 1019.81 1018.75 1017.63 1016.44 1015.16 1013.81 1012.39 1010.94 1009.48 1008.03 1006.61 1005.24 1003.93 1002.69 1001.50 1000.38 999.33 998.35 997.45 996.66 995.98 995.44
1035.58 1035.41 1035.12 1034.74 1034.29 1033.79 1033.25 1032.66 1032.02 1031.33 1030.56 1029.73 1028.84 1027.91 1026.95 1025.98 1025.02 1024.08 1023.15 1022.24 1021.32 1020.37 1019.37 1018.29 1017.12 1015.87 1014.53 1013.12 1011.66 1010.19 1008.72 1007.28 1005.89 1004.55 1003.26 1002.04 1000.88 999.77 998.74 997.79 996.95 996.22 995.64
1035.43 1035.27 1035.02 1034.70 1034.32 1033.90 1033.42 1032.89 1032.28 1031.60 1030.85 1030.02 1029.13 1028.20 1027.25 1026.30 1025.37 1024.47 1023.60 1022.73 1021.86 1020.96 1020.00 1018.96 1017.83 1016.61 1015.29 1013.90 1012.47 1011.01 1009.56 1008.13 1006.74 1005.40 1004.12 1002.89 1001.71 1000.59 999.54 998.56 997.68 996.92 996.30
1035.13 1035.01 1034.83 1034.61 1034.33 1034.00 1033.61 1033.15 1032.60 1031.96 1031.22 1030.41 1029.52 1028.59 1027.65 1026.71 1025.79 1024.91 1024.05 1023.22 1022.38 1021.50 1020.57 1019.57 1018.47 1017.28 1016.00 1014.65 1013.26 1011.84 1010.43 1009.04 1007.69 1006.39 1005.14 1003.94 1002.79 1001.69 1000.64 999.67 998.79 998.01 997.37
1034.73 1034.68 1034.60 1034.48 1034.32 1034.11 1033.82 1033.44 1032.95 1032.35 1031.65 1030.84 1029.96 1029.03 1028.08 1027.14 1026.22 1025.34 1024.48 1023.65 1022.81 1021.95 1021.03 1020.05 1018.97 1017.82 1016.58 1015.28 1013.94 1012.59 1011.24 1009.92 1008.65 1007.41 1006.23 1005.09 1003.99 1002.94 1001.95 1001.01 1000.16 999.40 998.76
1034.27 1034.31 1034.34 1034.34 1034.30 1034.20 1034.01 1033.71 1033.29 1032.73 1032.05 1031.27 1030.39 1029.46 1028.50 1027.55 1026.62 1025.72 1024.85 1024.00 1023.15 1022.28 1021.36 1020.37 1019.32 1018.19 1017.00 1015.75 1014.48 1013.21 1011.95 1010.72 1009.53 1008.39 1007.29 1006.24 1005.24 1004.27 1003.35 1002.48 1001.68 1000.97 1000.35
1033.81 1033.94 1034.08 1034.19 1034.26 1034.26 1034.16 1033.93 1033.56 1033.04 1032.39 1031.62 1030.76 1029.83 1028.87 1027.91 1026.97 1026.04 1025.15 1024.26 1023.38 1022.48 1021.54 1020.55 1019.51 1018.40 1017.25 1016.07 1014.87 1013.68 1012.52 1011.39 1010.31 1009.28 1008.30 1007.36 1006.46 1005.59 1004.77 1004.00 1003.28 1002.63 1002.07
1033.37 1033.60 1033.84 1034.05 1034.20 1034.27 1034.23 1034.05 1033.72 1033.24 1032.61 1031.86 1031.02 1030.10 1029.15 1028.18 1027.22 1026.28 1025.36 1024.44 1023.52 1022.58 1021.61 1020.61 1019.56 1018.48 1017.37 1016.24 1015.12 1014.03 1012.97 1011.96 1011.00 1010.09 1009.23 1008.42 1007.64 1006.89 1006.18 1005.52 1004.89 1004.33 1003.84
1032.98 1033.30 1033.62 1033.90 1034.11 1034.22 1034.21 1034.06 1033.76 1033.30 1032.69 1031.97 1031.14 1030.25 1029.31 1028.35 1027.39 1026.43 1025.48 1024.53 1023.57 1022.59 1021.59 1020.57 1019.52 1018.45 1017.38 1016.32 1015.28 1014.29 1013.34 1012.45 1011.63 1010.85 1010.13 1009.44 1008.80 1008.18 1007.59 1007.03 1006.51 1006.04 1005.62
1032.66 1033.06 1033.43 1033.75 1033.99 1034.12 1034.12 1033.97 1033.67 1033.23 1032.64 1031.94 1031.14 1030.28 1029.36 1028.42 1027.46 1026.49 1025.52 1024.53 1023.53 1022.52 1021.50 1020.45 1019.41 1018.37 1017.34 1016.35 1015.41 1014.52 1013.70 1012.94 1012.25 1011.61 1011.03 1010.48 1009.97 1009.47 1009.00 1008.55 1008.13 1007.74 1007.39
1032.42 1032.87 1033.27 1033.61 1033.85 1033.97 1033.95 1033.80 1033.49 1033.05 1032.48 1031.80 1031.03 1030.20 1029.31 1028.38 1027.43 1026.46 1025.46 1024.45 1023.43 1022.39 1021.34 1020.29 1019.26 1018.25 1017.28 1016.37 1015.53 1014.76 1014.07 1013.46 1012.91 1012.42 1011.98 1011.56 1011.17 1010.80 1010.44 1010.08 1009.75 1009.43 1009.13
Thickness
5472 5471 5469 5467 5465 5464 5461 5459 5456 5452 5449 5447 5444 5441 5438 5435 5432 5429 5425 5422 5419 5415 5412 5409 5405 5401 5398 5395 5391 5387 5383 5380 5379 5386 5384 5381 5377 5374 5374 5372 5372 5373 5374
5462 5460 5458 5456 5454 5452 5449 5446 5443 5441 5438 5434 5432 5428 5425 5422 5418 5415 5411 5408 5405 5401 5397 5393 5389 5385 5381 5378 5374 5370 5366 5362 5359 5362 5364 5361 5357 5354 5353 5352 5351 5351 5352
5453 5450 5448 5445 5443 5440 5438 5435 5432 5428 5425 5421 5418 5415 5412 5408 5405 5401 5397 5394 5390 5385 5381 5377 5372 5368 5364 5360 5356 5352 5348 5345 5340 5339 5342 5340 5337 5334 5331 5331 5330 5329 5330
5444 5441 5438 5435 5432 5429 5426 5423 5420 5416 5413 5409 5406 5402 5399 5395 5391 5387 5383 5379 5375 5370 5365 5360 5355 5351 5347 5343 5339 5334 5330 5326 5322 5319 5319 5319 5316 5313 5309 5308 5310 5310 5309
5435 5432 5428 5425 5422 5418 5414 5411 5408 5404 5401 5397 5394 5390 5386 5382 5378 5373 5369 5364 5359 5354 5349 5344 5339 5334 5330 5325 5321 5317 5312 5307 5303 5300 5298 5297 5295 5292 5288 5286 5286 5288 5289
5426 5422 5419 5415 5411 5407 5403 5400 5396 5392 5389 5385 5381 5377 5373 5368 5364 5360 5355 5350 5345 5340 5335 5329 5324 5320 5315 5311 5306 5301 5295 5289 5285 5281 5278 5275 5274 5270 5267 5264 5263 5264 5269
5418 5414 5409 5405 5401 5396 5393 5388 5385 5381 5377 5373 5369 5364 5360 5355 5351 5346 5341 5336 5330 5325 5320 5315 5311 5305 5300 5296 5291 5287 5280 5274 5269 5263 5260 5257 5254 5251 5247 5245 5243 5242 5243
5409 5405 5400 5395 5391 5386 5382 5378 5374 5370 5365 5361 5357 5352 5347 5343 5338 5333 5328 5322 5316 5311 5305 5300 5296 5290 5285 5280 5276 5272 5267 5262 5256 5250 5245 5241 5237 5233 5229 5226 5224 5224 5226
5402 5397 5392 5386 5381 5377 5372 5367 5363 5358 5354 5350 5345 5340 5335 5330 5325 5320 5315 5309 5304 5299 5293 5287 5282 5276 5271 5266 5262 5258 5254 5249 5243 5238 5232 5227 5223 5219 5213 5210 5207 5205 5208
5395 5390 5384 5378 5373 5368 5363 5358 5353 5348 5343 5338 5333 5327 5322 5317 5312 5308 5302 5297 5292 5287 5282 5276 5269 5263 5258 5253 5247 5243 5239 5235 5230 5226 5221 5215 5209 5204 5200 5194 5190 5188 5188
5387 5381 5375 5370 5364 5359 5353 5348 5342 5337 5331 5326 5321 5316 5311 5306 5301 5296 5290 5284 5279 5274 5269 5264 5258 5252 5248 5242 5236 5229 5225 5220 5215 5210 5206 5201 5197 5192 5187 5182 5177 5173 5173
5379 5373 5367 5361 5355 5349 5343 5337 5331 5325 5320 5315 5310 5305 5300 5295 5289 5284 5279 5273 5267 5262 5258 5252 5247 5242 5237 5232 5225 5219 5213 5207 5201 5196 5192 5188 5184 5180 5176 5171 5167 5164 5161
5370 5364 5357 5351 5345 5339 5332 5326 5320 5314 5309 5304 5299 5295 5290 5285 5279 5274 5269 5263 5258 5252 5247 5242 5237 5231 5226 5221 5214 5208 5202 5195 5189 5184 5180 5176 5172 5168 5165 5162 5159 5156 5155
5360 5354 5347 5340 5334 5328 5322 5316 5310 5305 5300 5295 5290 5285 5280 5274 5269 5264 5259 5254 5249 5243 5238 5232 5226 5220 5214 5208 5202 5195 5189 5183 5177 5173 5169 5165 5161 5157 5154 5151 5149 5148 5148
5350 5344 5337 5330 5324 5318 5313 5307 5302 5298 5291 5286 5281 5275 5268 5264 5260 5254 5248 5243 5238 5233 5227 5220 5214 5208 5203 5196 5190 5183 5177 5172 5166 5162 5157 5154 5151 5148 5145 5142 5139 5137 5136
5341 5334 5327 5321 5314 5308 5303 5298 5294 5288 5283 5277 5272 5265 5260 5255 5250 5245 5239 5234 5228 5222 5214 5207 5201 5196 5190 5184 5178 5172 5166 5161 5156 5151 5147 5143 5140 5138 5136 5133 5130 5128 5127
5332 5325 5318 5311 5305 5299 5293 5287 5283 5279 5273 5267 5262 5256 5251 5246 5240 5234 5229 5224 5218 5211 5202 5195 5190 5184 5178 5173 5167 5161 5156 5151 5146 5141 5137 5134 5131 5129 5126 5124 5122 5120 5120
5321 5315 5308 5302 5296 5290 5284 5278 5271 5266 5261 5257 5252 5246 5241 5235 5229 5224 5218 5212 5205 5199 5191 5184 5179 5174 5168 5163 5157 5152 5147 5142 5137 5133 5129 5125 5122 5119 5117 5115 5113 5111 5111
5311 5306 5299 5293 5286 5280 5274 5267 5261 5255 5249 5244 5239 5235 5230 5224 5218 5213 5207 5199 5193 5188 5182 5176 5170 5164 5159 5154 5149 5144 5139 5134 5130 5125 5122 5118 5114 5111 5109 5107 5105 5104 5102
5302 5296 5289 5282 5276 5269 5263 5257 5251 5244 5238 5233 5229 5224 5218 5212 5207 5201 5195 5189 5183 5178 5173 5168 5162 5157 5152 5147 5142 5137 5132 5127 5123 5119 5115 5111 5108 5105 5103 5100 5099 5098 5096
5292 5285 5278 5271 5265 5259 5253 5246 5240 5234 5229 5224 5219 5214 5210 5203 5197 5191 5185 5180 5175 5170 5166 5161 5156 5151 5146 5140 5136 5131 5125 5121 5117 5113 5109 5106 5103 5099 5097 5095 5094 5091 5089
5281 5274 5267 5261 5255 5248 5242 5236 5230 5225 5220 5214 5210 5204 5200 5193 5188 5183 5178 5173 5168 5163 5158 5153 5149 5144 5139 5134 5129 5124 5120 5116 5112 5108 5104 5101 5097 5094 5092 5090 5088 5086 5084
5270 5263 5255 5249 5243 5237 5231 5225 5220 5215 5210 5205 5200 5194 5189 5184 5179 5175 5170 5165 5161 5156 5151 5147 5142 5138 5133 5128 5123 5118 5114 5111 5107 5103 5099 5096 5093 5090 5088 5085 5083 5080 5078
5259 5252 5245 5238 5232 5226 5221 5215 5210 5205 5200 5195 5190 5185 5180 5176 5171 5167 5162 5158 5153 5149 5145 5140 5136 5132 5127 5122 5118 5114 5110 5107 5103 5099 5096 5092 5089 5086 5083 5081 5079 5076 5074
5247 5240 5234 5228 5222 5216 5211 5205 5200 5195 5190 5186 5182 5177 5172 5168 5163 5159 5154 5150 5146 5142 5138 5134 5130 5126 5122 5118 5114 5110 5107 5104 5100 5097 5093 5089 5086 5083 5080 5077 5075 5073 5071
5234 5228 5222 5216 5211 5206 5201 5196 5191 5186 5181 5178 5173 5168 5164 5160 5155 5151 5147 5143 5139 5136 5132 5129 5125 5121 5117 5114 5110 5107 5104 5101 5098 5095 5091 5087 5084 5081 5078 5075 5073 5070 5068